Weather History for KARM - February, 2014

Change the Weather History Date:

Saturday, February 15, 2014

  Actual Average (KPSX) Record (KPSX)
Temperature  
Mean Temperature 54 °F -  
Max Temperature 69 °F 66 °F 79 °F (1956)
Min Temperature 40 °F 51 °F 28 °F (1951)
Degree Days  
Heating Degree Days 10    
Growing Degree Days 4 (Base 50)    
Moisture  
Dew Point 40 °F    
Average Humidity 57    
Maximum Humidity 85    
Minimum Humidity 25    
Precipitation  
Precipitation 0.00 in - - ()
Sea Level Pressure  
Sea Level Pressure 30.12 in    
Wind  
Wind Speed 7 mph (East)    
Max Wind Speed 16 mph    
Max Gust Speed 24 mph    
Visibility 10 miles    
Events      
Averages and records for this station are not official NWS values.
T = Trace of Precipitation, MM = Missing Value Source: NWS Daily Summary

Daily Weather History Graph

Daily Weather History Graph

Search for Another Location

Airport or City:

Trip Planner

Search our weather history database for the weather conditions in past years. The results will help you decide how hot, cold, wet, or windy it might be!

Date:

Astronomy

Feb. 15, 2014 Rise Set
Actual Time 7:03 AM CST 6:14 PM CST
Civil Twilight 6:39 AM CST 6:38 PM CST
Nautical Twilight 6:11 AM CST 7:06 PM CST
Astronomical Twilight 5:43 AM CST 7:34 PM CST
Moon 7:06 PM CST (2/15) 7:09 AM CST (2/15)
Length of Visible Light 11h 59m
Length of Day
11h 10m
Waxing Gibbous, 99% of the Moon is Illuminated
Feb 15
Waxing Gibbous
Feb 22
Last Quarter
Mar 1
New
Mar 8
First Quarter
Mar 16
Full

Hourly Weather History & Observations

Time (CST) Temp. Windchill Dew Point Humidity Pressure Visibility Wind Dir Wind Speed Gust Speed Precip Events Conditions
12:15 AM 52.7 °F - 38.3 °F 58% 30.07 in 10.0 mi North 3.5 mph - N/A   Clear
12:35 AM 51.3 °F - 37.9 °F 60% 30.07 in 10.0 mi NNW 3.5 mph - N/A   Clear
12:55 AM 50.4 °F - 37.6 °F 62% 30.07 in 10.0 mi North 5.8 mph - N/A   Clear
1:15 AM 49.5 °F - 37.8 °F 64% 30.07 in 10.0 mi North 6.9 mph - N/A   Clear
1:35 AM 49.6 °F - 36.9 °F 61% 30.07 in 10.0 mi North 5.8 mph - N/A   Clear
1:55 AM 49.5 °F - 36.5 °F 61% 30.08 in 10.0 mi North 3.5 mph - N/A   Clear
2:15 AM 48.9 °F - 37.2 °F 64% 30.09 in 10.0 mi NNW 6.9 mph - N/A   Clear
2:35 AM 47.5 °F - 37.0 °F 67% 30.09 in 10.0 mi North 4.6 mph - N/A   Clear
2:55 AM 47.5 °F - 36.9 °F 67% 30.10 in 10.0 mi North 4.6 mph - N/A   Clear
3:15 AM 46.4 °F 45.2 °F 36.5 °F 68% 30.10 in 10.0 mi North 3.5 mph - N/A   Clear
3:35 AM 46.4 °F - 36.1 °F 67% 30.09 in 10.0 mi Calm Calm - N/A   Clear
3:55 AM 46.0 °F 43.9 °F 36.0 °F 68% 30.10 in 10.0 mi North 4.6 mph - N/A   Clear
4:15 AM 45.9 °F 44.6 °F 36.3 °F 69% 30.10 in 10.0 mi North 3.5 mph - N/A   Clear
4:35 AM 43.9 °F 40.5 °F 36.0 °F 74% 30.10 in 10.0 mi NNE 5.8 mph - N/A   Clear
4:55 AM 43.3 °F 41.7 °F 35.6 °F 74% 30.11 in 10.0 mi NE 3.5 mph - N/A   Clear
5:15 AM 43.0 °F 41.3 °F 35.8 °F 76% 30.12 in 10.0 mi NNE 3.5 mph - N/A   Clear
5:35 AM 41.9 °F 38.2 °F 35.4 °F 78% 30.12 in 10.0 mi NNE 5.8 mph - N/A   Clear
5:55 AM 41.5 °F - 35.4 °F 79% 30.12 in 10.0 mi Calm Calm - N/A   Clear
6:15 AM 40.3 °F 37.1 °F 34.5 °F 80% 30.13 in 10.0 mi NNE 4.6 mph - N/A   Clear
6:35 AM 41.9 °F 37.5 °F 36.0 °F 79% 30.13 in 10.0 mi NE 6.9 mph - N/A   Clear
6:55 AM 43.7 °F 39.7 °F 36.5 °F 76% 30.14 in 10.0 mi NNE 6.9 mph - N/A   Clear
7:15 AM 44.8 °F 42.4 °F 36.5 °F 73% 30.14 in 10.0 mi NE 4.6 mph - N/A   Clear
7:35 AM 45.5 °F 44.2 °F 36.5 °F 71% 30.15 in 10.0 mi NE 3.5 mph - N/A   Clear
7:55 AM 48.4 °F - 37.9 °F 67% 30.16 in 10.0 mi Calm Calm - N/A   Clear
8:15 AM 51.1 °F - 37.8 °F 60% 30.16 in 10.0 mi ENE 5.8 mph - N/A   Clear
8:35 AM 53.8 °F - 36.9 °F 53% 30.17 in 10.0 mi ENE 11.5 mph - N/A   Clear
8:55 AM 56.3 °F - 33.6 °F 42% 30.17 in 10.0 mi East 16.1 mph - N/A   Clear
9:15 AM 57.7 °F - 32.7 °F 39% 30.19 in 10.0 mi East 11.5 mph 18.4 mph N/A   Clear
9:35 AM 58.8 °F - 32.0 °F 36% 30.19 in 10.0 mi East 12.7 mph - N/A   Clear
9:55 AM 60.4 °F - 32.2 °F 35% 30.18 in 10.0 mi East 15.0 mph - N/A   Clear
10:15 AM 61.9 °F - 32.7 °F 34% 30.18 in 10.0 mi East 13.8 mph 18.4 mph N/A   Clear
10:35 AM 62.6 °F - 32.0 °F 32% 30.18 in 10.0 mi East 13.8 mph 24.2 mph N/A   Clear
10:55 AM 63.5 °F - 31.8 °F 31% 30.18 in 10.0 mi East 12.7 mph 23.0 mph N/A   Clear
11:15 AM 64.9 °F - 32.4 °F 30% 30.18 in 10.0 mi SE 12.7 mph - N/A   Clear
11:35 AM 65.7 °F - 32.7 °F 29% 30.17 in 10.0 mi ESE 10.4 mph 17.3 mph N/A   Clear
11:55 AM 66.7 °F - 33.6 °F 29% 30.16 in 10.0 mi ESE 10.4 mph 17.3 mph N/A   Clear
12:15 PM 66.9 °F - 33.4 °F 29% 30.17 in 10.0 mi ESE 9.2 mph - N/A   Clear
12:35 PM 68.2 °F - 32.4 °F 26% 30.16 in 10.0 mi ESE 8.1 mph - N/A   Clear
12:55 PM 68.7 °F - 31.6 °F 25% 30.15 in 10.0 mi ESE 11.5 mph - N/A   Clear
1:15 PM 69.3 °F - 31.8 °F 25% 30.15 in 10.0 mi SE 10.4 mph 16.1 mph N/A   Clear
1:35 PM 69.4 °F - 32.2 °F 25% 30.14 in 10.0 mi SE 10.4 mph - N/A   Clear
1:55 PM 69.6 °F - 32.0 °F 25% 30.13 in 10.0 mi SE 11.5 mph - N/A   Clear
2:15 PM 69.6 °F - 33.1 °F 26% 30.12 in 10.0 mi SE 12.7 mph 23.0 mph N/A   Clear
2:35 PM 69.8 °F - 34.2 °F 27% 30.12 in 10.0 mi SSE 13.8 mph 18.4 mph N/A   Clear
2:55 PM 69.3 °F - 35.8 °F 29% 30.11 in 10.0 mi SE 13.8 mph - N/A   Clear
3:15 PM 68.5 °F - 36.7 °F 31% 30.11 in 10.0 mi ESE 11.5 mph 17.3 mph N/A   Clear
3:35 PM 68.4 °F - 40.8 °F 37% 30.11 in 10.0 mi SE 11.5 mph - N/A   Clear
3:55 PM 67.8 °F - 43.0 °F 41% 30.10 in 10.0 mi SE 12.7 mph 17.3 mph N/A   Clear
4:15 PM 67.6 °F - 44.6 °F 43% 30.10 in 10.0 mi SE 13.8 mph - N/A   Clear
4:35 PM 66.9 °F - 45.5 °F 46% 30.09 in 10.0 mi SE 12.7 mph 17.3 mph N/A   Clear
4:55 PM 66.2 °F - 45.9 °F 48% 30.09 in 10.0 mi SE 12.7 mph - N/A   Clear
5:15 PM 65.3 °F - 47.3 °F 52% 30.09 in 10.0 mi SE 13.8 mph 17.3 mph N/A   Clear
5:35 PM 64.0 °F - 47.8 °F 56% 30.08 in 10.0 mi SE 11.5 mph 17.3 mph N/A   Clear
5:55 PM 62.6 °F - 48.2 °F 59% 30.09 in 10.0 mi SE 13.8 mph - N/A   Scattered Clouds
6:15 PM 62.2 °F - 48.2 °F 60% 30.08 in 10.0 mi SE 9.2 mph - N/A   Overcast
6:35 PM 61.7 °F - 48.6 °F 62% 30.09 in 10.0 mi SE 9.2 mph - N/A   Overcast
6:55 PM 61.0 °F - 49.1 °F 65% 30.09 in 10.0 mi SE 10.4 mph - N/A   Overcast
7:15 PM 60.8 °F - 49.1 °F 65% 30.09 in 10.0 mi ESE 8.1 mph - N/A   Overcast
7:35 PM 60.1 °F - 49.3 °F 67% 30.09 in 10.0 mi ESE 10.4 mph - N/A   Overcast
7:55 PM 58.1 °F - 48.9 °F 71% 30.10 in 10.0 mi SE 6.9 mph - N/A   Mostly Cloudy
8:15 PM 56.3 °F - 48.6 °F 75% 30.10 in 10.0 mi SE 5.8 mph - N/A   Scattered Clouds
8:35 PM 54.5 °F - 47.8 °F 78% 30.10 in 10.0 mi ESE 5.8 mph - N/A   Scattered Clouds
8:55 PM 53.4 °F - 47.1 °F 79% 30.09 in 10.0 mi SE 5.8 mph - N/A   Scattered Clouds
9:15 PM 53.1 °F - 48.0 °F 83% 30.09 in 10.0 mi ESE 5.8 mph - N/A   Scattered Clouds
9:35 PM 53.4 °F - 48.2 °F 82% 30.09 in 10.0 mi ESE 5.8 mph - N/A   Clear
9:55 PM 54.3 °F - 49.1 °F 83% 30.10 in 10.0 mi East 5.8 mph - N/A   Scattered Clouds
10:15 PM 55.8 °F - 50.4 °F 82% 30.09 in 10.0 mi East 5.8 mph - N/A   Overcast
10:35 PM 55.8 °F - 50.4 °F 82% 30.09 in 10.0 mi East 5.8 mph - N/A   Overcast
10:55 PM 55.4 °F - 50.2 °F 83% 30.10 in 10.0 mi East 4.6 mph - N/A   Mostly Cloudy
11:15 PM 55.8 °F - 50.7 °F 83% 30.10 in 10.0 mi East 5.8 mph - N/A   Mostly Cloudy
11:35 PM 56.3 °F - 51.4 °F 84% 30.09 in 10.0 mi East 3.5 mph - N/A   Overcast
11:55 PM 56.3 °F - 51.8 °F 85% 30.09 in 10.0 mi East 4.6 mph - N/A   Overcast